User: anonymous   Login
Location: Caltech
(34.1382°N, 118.1253°W)
Time: 02:31:10
(UTC-07:00)
Language:

Cosmos 1606 - Orbit

View from above orbital plane
View from above orbital plane
View from above satellite
View from above satellite

Ground track
Ground track

The orbit data is extracted from the following two-line orbital elements,

1 15369U 84111A   14296.73952427  .00005683  00000-0  33661-3 0  6586
2 15369 082.5308 352.0347 0020059 009.2177 350.9417 15.11050878634062
Epoch (UTC): 23 October 2014 17:44:54
Eccentricity: 0.0020059
inclination: 82.5308°
perigee height: 519 km
apogee height: 547 km
right ascension of ascending node: 352.0347°
argument of perigee: 9.2177°
revolutions per day: 15.11050878
mean anomaly at epoch: 350.9417°
orbit number at epoch: 63406

The dashed part of the orbit path shows where the satellite is in the earth's shadow,  

DLR